STARLINK-35392

Last updated on Mon Oct 20 2025 00:02:07 GMT+0000 (Coordinated Universal Time)

1 65823U 25221A 25292.25002315 -.01560928 00000+0 -28685-1 0 9996 2 65823 53.1607 27.8617 0001129 83.2142 239.7612 15.51582829 4439
UTC large
Height (km)
Speed (km/s)
/
Latitude / Longitude
Inclination (degrees)
Orbital Period (minutes)
Azimuth
Elevation
Range (km)
Doppler Factor

Next 0 passes for location: London (51.5072 / 0.1276)

Sorry there are no passes over London.